Home   Weather   Cottbus   Past weeks

Flag for Germany Past Weather in Cottbus, Brandenburg, Germany — Yesterday and Last 2 Weeks

Now
34 °F

Passing clouds.


Feels Like: 30 °F
Forecast: 19 / 25 °F
Wind: 5 mph from Southeast

Location: Holzdorf

Current Time: Jan 22, 2017 at 1:24:35 pm

Latest Report: Jan 22, 2017 at 12:20 pm


Visibility: N/A

Pressure: 30.36 "Hg

Humidity: 65%

Dew Point: 23 °F

Location of CottbusLocation

Past Weather in Cottbus — Graph

°F

Cottbus Temperature Yesterday

Maximum temperature yesterday: 32 °F (at 12:35 pm)
Minimum temperature yesterday: 21 °F (at 9:20 pm)
Average temperature yesterday: 28 °F

High & Low Weather Summary for the Past Weeks

 TemperatureHumidityPressure
High39 °F (Jan 12, 3:20 am)100% (Jan 8, 3:20 am)30.77 "Hg (Jan 8, 3:20 am)
Low14 °F (Jan 17, 9:08 pm)56% (Jan 20, 2:20 pm)29.03 "Hg (Jan 13, 6:20 am)
Average28 °F89%30.17 "Hg
* Reported Jan 7 12:20 pm — Jan 22 12:20 pm, Cottbus, Weather by CustomWeather, © 2017

Note: Actual official high and low records may vary slightly from our data, if they occured in-between our weather recording intervals... More about our weather records

Advertising

Cottbus Weather History for the Previous 24 Hours

Scroll right to see more
 ConditionsComfort  
Time TempWeatherWind HumidityBarometerVisibility
12:20 pm
Sun, Jan 22
34 °FPassing clouds.5 mph65%30.36 "HgN/A
11:20 am30 °FPassing clouds.6 mph93%30.39 "HgN/A
10:20 am27 °FPassing clouds.5 mph93%30.39 "HgN/A
9:20 am23 °FPassing clouds.3 mph93%30.39 "Hg6 mi
9:05 am19 °FPassing clouds.2 mph93%30.39 "Hg5 mi
8:36 am18 °FIce fog.No wind93%30.39 "Hg3 mi
8:20 am18 °FFog.1 mph93%30.39 "Hg2 mi
7:47 am18 °FFog.No wind93%30.39 "Hg2 mi
7:20 am16 °FIce fog.No wind93%30.39 "Hg2 mi
6:20 am21 °FIce fog.1 mph93%30.39 "Hg3 mi
5:43 am21 °FIce fog.3 mph93%30.39 "Hg3 mi
5:20 am23 °FCold.5 mph93%30.39 "Hg4 mi
4:20 am23 °FCold.5 mph93%30.42 "Hg4 mi
3:20 am23 °FCold.3 mph93%30.42 "Hg4 mi
2:20 am19 °FCold.2 mph93%30.42 "Hg4 mi
1:46 am19 °FCold.1 mphN/A30.45 "Hg4 mi
1:20 am21 °FCold.2 mph93%30.45 "Hg5 mi
12:20 am23 °FCold.3 mph100%30.45 "Hg6 mi
11:20 pm
Sat, Jan 21
23 °FCold.5 mph93%30.45 "Hg5 mi
10:20 pm21 °FFog.2 mph93%30.48 "Hg4 mi
9:20 pm21 °FFog.No wind93%30.48 "Hg4 mi
8:20 pm25 °FFog.1 mph93%30.48 "Hg4 mi
7:20 pm25 °FFog.2 mph93%30.48 "Hg4 mi
6:20 pm27 °FFog.2 mph93%30.48 "Hg4 mi
5:46 pm28 °FIce fog.2 mph93%30.48 "Hg3 mi
5:20 pm30 °FIce fog.2 mph86%30.48 "Hg3 mi
4:20 pm32 °FIce fog.3 mph80%30.48 "Hg3 mi
3:20 pm32 °FIce fog.6 mph87%30.48 "Hg3 mi
2:20 pm32 °FIce fog.2 mph80%30.48 "Hg3 mi
1:20 pm32 °FPartly sunny.3 mph80%30.48 "Hg4 mi
Weather by CustomWeather, © 2017

See weather overviewHow to use our weather pages